Cherokee, IA

3:35 AM CST on January 18, 2017 (GMT -0600)
Cherokee Municipal

Weather History for KCKP - September, 2014

Change the Weather History Date:

Sunday, September 21, 2014

  Actual Average Record
Temperature  
Mean Temperature 58 °F -  
Max Temperature 69 °F 70 °F 91 °F (1970)
Min Temperature 48 °F 45 °F 31 °F (1982)
Degree Days  
Heating Degree Days 7    
Growing Degree Days 8 (Base 50)    
Moisture  
Dew Point 48 °F    
Average Humidity 72    
Maximum Humidity 100    
Minimum Humidity 46    
Precipitation  
Precipitation 0.00 in - - ()
Sea Level Pressure  
Sea Level Pressure 30.17 in    
Wind  
Wind Speed 7 mph (NNW)    
Max Wind Speed 17 mph    
Max Gust Speed 25 mph    
Visibility 10 miles    
Events      
Averages and records for this station are not official NWS values.
T = Trace of Precipitation, MM = Missing Value Source: NWS Daily Summary

Daily Weather History Graph

Daily Weather History Graph

Search for Another Location

Airport or City:

Trip Planner

Search our weather history database for the weather conditions in past years. The results will help you decide how hot, cold, wet, or windy it might be!

Date:

Astronomy

Sep. 21, 2014 Rise Set
Actual Time 7:08 AM CDT 7:21 PM CDT
Civil Twilight 6:40 AM CDT 7:49 PM CDT
Nautical Twilight 6:07 AM CDT 8:22 PM CDT
Astronomical Twilight 5:33 AM CDT 8:56 PM CDT
Moon 4:40 AM CDT (9/21) 5:59 PM CDT (9/21)
Length of Visible Light 13h 09m
Length of Day
12h 12m
Waning Crescent, 6% of the Moon is Illuminated
Sep 21
Waning Crescent
Sep 24
New
Oct 1
First Quarter
Oct 8
Full
Oct 15
Last Quarter

Hourly Weather History & Observations

Time (CDT) Temp. Dew Point Humidity Pressure Visibility Wind Dir Wind Speed Gust Speed Precip Events Conditions
12:15 AM 56.5 °F 51.4 °F 83% 30.04 in 10.0 mi West 3.5 mph - N/A   Clear
12:35 AM 56.3 °F 50.4 °F 80% 30.04 in 10.0 mi WNW 5.8 mph - N/A   Clear
12:55 AM 56.3 °F 50.0 °F 79% 30.04 in 10.0 mi WNW 5.8 mph - N/A   Clear
1:15 AM 55.9 °F 49.5 °F 79% 30.04 in 10.0 mi WNW 4.6 mph - N/A   Clear
1:35 AM 56.7 °F 48.7 °F 75% 30.04 in 10.0 mi WNW 8.1 mph - N/A   Clear
1:55 AM 57.2 °F 48.2 °F 72% 30.04 in 10.0 mi WNW 6.9 mph - N/A   Clear
2:15 AM 57.4 °F 48.0 °F 71% 30.04 in 10.0 mi WNW 6.9 mph - N/A   Clear
2:35 AM 55.4 °F 48.2 °F 77% 30.04 in 10.0 mi WNW 8.1 mph - N/A   Clear
2:55 AM 54.5 °F 48.2 °F 79% 30.04 in 10.0 mi WNW 6.9 mph - N/A   Clear
3:15 AM 54.5 °F 48.2 °F 79% 30.05 in 10.0 mi WNW 6.9 mph - N/A   Clear
3:35 AM 54.1 °F 48.2 °F 80% 30.05 in 10.0 mi WNW 6.9 mph - N/A   Clear
3:55 AM 53.1 °F 48.2 °F 84% 30.05 in 10.0 mi WNW 5.8 mph - N/A   Clear
4:15 AM 52.9 °F 47.8 °F 83% 30.06 in 10.0 mi WNW 6.9 mph - N/A   Clear
4:35 AM 52.2 °F 47.8 °F 85% 30.06 in 10.0 mi WNW 6.9 mph - N/A   Clear
4:55 AM 51.8 °F 47.7 °F 86% 30.07 in 10.0 mi NW 5.8 mph - N/A   Clear
5:15 AM 51.3 °F 47.3 °F 86% 30.08 in 10.0 mi WNW 4.6 mph - N/A   Clear
5:35 AM 51.1 °F 47.1 °F 86% 30.08 in 10.0 mi NW 4.6 mph - N/A   Clear
5:55 AM 51.4 °F 46.8 °F 84% 30.09 in 10.0 mi NNW 4.6 mph - N/A   Clear
6:15 AM 50.9 °F 46.9 °F 86% 30.10 in 10.0 mi NNW 6.9 mph - N/A   Clear
6:35 AM 51.4 °F 46.6 °F 83% 30.11 in 10.0 mi NNW 6.9 mph - N/A   Clear
6:55 AM 51.8 °F 46.4 °F 82% 30.12 in 10.0 mi NNW 5.8 mph - N/A   Clear
7:15 AM 51.1 °F 46.6 °F 85% 30.13 in 10.0 mi NW 5.8 mph - N/A   Clear
7:35 AM 51.4 °F 46.6 °F 83% 30.14 in 10.0 mi NW 6.9 mph - N/A   Clear
7:55 AM 52.0 °F 47.1 °F 83% 30.15 in 10.0 mi NW 6.9 mph - N/A   Clear
8:15 AM 53.6 °F 47.8 °F 81% 30.16 in 10.0 mi WNW 4.6 mph - N/A   Clear
8:35 AM 54.5 °F 48.0 °F 79% 30.16 in 10.0 mi NW 8.1 mph - N/A   Clear
8:55 AM 55.4 °F 48.7 °F 78% 30.17 in 10.0 mi NW 6.9 mph - N/A   Clear
9:15 AM 56.8 °F 49.5 °F 76% 30.18 in 10.0 mi NNW 9.2 mph - N/A   Clear
9:35 AM 58.3 °F 49.3 °F 72% 30.19 in 10.0 mi NNW 11.5 mph 18.4 mph N/A   Clear
9:55 AM 59.4 °F 49.6 °F 70% 30.19 in 10.0 mi NNW 12.7 mph 18.4 mph N/A   Clear
10:15 AM 60.3 °F 50.0 °F 69% 30.20 in 10.0 mi NNW 12.7 mph 17.3 mph N/A   Clear
10:35 AM 61.0 °F 50.2 °F 68% 30.20 in 10.0 mi NNW 11.5 mph 18.4 mph N/A   Clear
10:55 AM 61.7 °F 49.1 °F 63% 30.20 in 10.0 mi NNW 17.3 mph 25.3 mph N/A   Scattered Clouds
11:15 AM 62.8 °F 48.7 °F 60% 30.21 in 10.0 mi NNW 16.1 mph 23.0 mph N/A   Scattered Clouds
11:35 AM 63.5 °F 49.1 °F 59% 30.21 in 10.0 mi North 16.1 mph 21.9 mph N/A   Scattered Clouds
11:55 AM 63.7 °F 48.7 °F 58% 30.21 in 10.0 mi North 15.0 mph 19.6 mph N/A   Scattered Clouds
12:15 PM 63.7 °F 48.6 °F 58% 30.21 in 10.0 mi North 16.1 mph 20.7 mph N/A   Scattered Clouds
12:35 PM 64.6 °F 49.1 °F 57% 30.21 in 10.0 mi North 12.7 mph 18.4 mph N/A   Clear
12:55 PM 65.1 °F 48.4 °F 55% 30.21 in 10.0 mi NNW 10.4 mph 21.9 mph N/A   Scattered Clouds
1:15 PM 66.0 °F 48.9 °F 54% 30.21 in 10.0 mi North 10.4 mph - N/A   Scattered Clouds
1:35 PM 65.7 °F 47.7 °F 52% 30.21 in 10.0 mi North 10.4 mph - N/A   Scattered Clouds
1:55 PM 66.2 °F 47.5 °F 51% 30.21 in 10.0 mi NNW 13.8 mph 19.6 mph N/A   Scattered Clouds
2:15 PM 67.6 °F 48.4 °F 50% 30.20 in 10.0 mi North 13.8 mph 17.3 mph N/A   Mostly Cloudy
2:35 PM 68.0 °F 46.9 °F 47% 30.20 in 10.0 mi North 15.0 mph 20.7 mph N/A   Scattered Clouds
2:55 PM 67.6 °F 47.1 °F 48% 30.20 in 10.0 mi NNW 11.5 mph 21.9 mph N/A   Scattered Clouds
3:15 PM 68.2 °F 47.5 °F 47% 30.20 in 10.0 mi North 15.0 mph 19.6 mph N/A   Scattered Clouds
3:35 PM 68.2 °F 46.8 °F 46% 30.20 in 10.0 mi NNW 9.2 mph - N/A   Scattered Clouds
3:55 PM 68.4 °F 47.3 °F 47% 30.20 in 10.0 mi NNW 9.2 mph 17.3 mph N/A   Mostly Cloudy
4:15 PM 67.1 °F 45.9 °F 46% 30.20 in 10.0 mi North 10.4 mph 18.4 mph N/A   Mostly Cloudy
4:35 PM 67.1 °F 46.9 °F 48% 30.20 in 10.0 mi North 9.2 mph 19.6 mph N/A   Scattered Clouds
4:55 PM 68.4 °F 47.1 °F 47% 30.20 in 10.0 mi NW 10.4 mph - N/A   Mostly Cloudy
5:15 PM 68.0 °F 46.6 °F 46% 30.20 in 10.0 mi North 6.9 mph - N/A   Overcast
5:35 PM 67.1 °F 46.2 °F 47% 30.20 in 10.0 mi North 11.5 mph 16.1 mph N/A   Scattered Clouds
5:55 PM 66.9 °F 47.7 °F 50% 30.21 in 10.0 mi North 6.9 mph - N/A   Clear
6:15 PM 67.1 °F 46.4 °F 47% 30.21 in 10.0 mi North 10.4 mph - N/A   Scattered Clouds
6:35 PM 66.2 °F 46.9 °F 50% 30.21 in 10.0 mi North 5.8 mph - N/A   Clear
6:55 PM 65.3 °F 47.7 °F 53% 30.22 in 10.0 mi NNE 5.8 mph - N/A   Clear
7:15 PM 63.0 °F 48.2 °F 59% 30.22 in 10.0 mi NNE 4.6 mph - N/A   Clear
7:35 PM 61.2 °F 48.2 °F 62% 30.23 in 10.0 mi Calm Calm - N/A   Clear
7:55 PM 57.4 °F 50.9 °F 79% 30.23 in 10.0 mi Calm Calm - N/A   Clear
8:15 PM 55.0 °F 51.1 °F 86% 30.23 in 10.0 mi Calm Calm - N/A   Clear
8:35 PM 53.8 °F 50.2 °F 88% 30.23 in 10.0 mi Calm Calm - N/A   Clear
8:55 PM 52.3 °F 50.0 °F 92% 30.25 in 10.0 mi Calm Calm - N/A   Clear
9:15 PM 52.3 °F 50.2 °F 92% 30.25 in 10.0 mi Calm Calm - N/A   Clear
9:35 PM 52.7 °F 50.4 °F 92% 30.26 in 10.0 mi Calm Calm - N/A   Clear
9:55 PM 51.1 °F 50.4 °F 97% 30.26 in 10.0 mi Calm Calm - N/A   Clear
10:15 PM 51.1 °F 50.4 °F 97% 30.27 in 10.0 mi Calm Calm - N/A   Clear
10:35 PM 49.3 °F 48.7 °F 98% 30.27 in 10.0 mi Calm Calm - N/A   Clear
10:55 PM 50.0 °F 49.8 °F 99% 30.27 in 4.0 mi Calm Calm - N/A   Clear
11:15 PM 49.3 °F 49.1 °F 99% 30.27 in 10.0 mi Calm Calm - N/A   Clear
11:35 PM 48.0 °F 47.5 °F 98% 30.27 in 10.0 mi Calm Calm - N/A   Clear
11:55 PM 48.2 °F 48.2 °F 100% 30.27 in 10.0 mi Calm Calm - N/A   Clear